Wind_Speed
7 6 5 4 2 2 3 5 6 6 5 5 4 4 4 4 4 5 6 5 5 5 5 5 6 6 6 7 8 9 9 10 10 10 10 10 10 11 11 11 12 12 12 12 13 13 13 13 14
9 8 7 6 6 6 6 6 7 7 6 6 5 4 3 3 3 4 4 4 5 5 6 6 6 7 7 8 9 9 9 9 9 9 9 10 10 10 11 11 11 11 12 12 13 13 13 14 14
8 7 7 7 7 6 5 6 7 8 7 6 5 3 1 2 2 3 5 6 6 6 7 7 8 8 8 8 8 8 8 8 8 9 9 9 10 10 10 11 11 12 12 13 13 14 14 14 15
6 6 5 5 5 3 1 2 4 5 4 3 2 1 3 3 4 5 6 8 8 8 8 9 9 8 8 8 8 8 8 8 8 8 9 9 10 10 10 11 12 12 12 13 13 14 14 15 16
5 5 5 5 4 3 3 2 1 1 1 0 2 3 6 6 6 7 8 9 10 10 9 9 9 9 9 9 8 8 8 8 8 8 9 9 10 10 10 11 11 12 12 13 13 14 15 15 16
5 5 5 5 6 5 5 4 3 3 3 4 4 5 8 10 8 7 9 11 12 11 10 10 10 10 9 9 8 8 8 8 9 9 9 9 10 10 10 11 11 11 12 13 13 14 15 16 17
6 6 6 6 6 6 5 6 5 5 5 6 7 7 10 12 9 8 9 11 12 12 11 10 10 10 10 9 9 9 9 9 9 9 9 10 10 10 11 11 11 12 13 13 14 14 15 16 17
7 7 7 6 6 7 6 7 8 8 7 8 8 9 11 13 11 10 10 11 12 13 12 11 11 11 11 11 11 10 10 10 10 11 11 11 11 12 12 13 13 14 14 15 16 16 17 18 19
7 8 8 7 7 7 8 8 10 10 9 9 8 10 12 13 13 12 11 11 12 13 13 12 12 12 12 12 12 12 12 12 13 13 13 13 14 14 15 15 16 16 17 18 19 19 20 21 22
8 9 9 9 8 9 9 9 10 11 12 10 8 11 13 14 14 13 12 12 13 14 14 14 14 14 14 14 15 15 15 15 15 15 16 16 17 17 18 18 19 19 20 21 22 23 24 25 25
10 10 10 10 10 10 10 11 10 10 12 12 11 12 14 15 15 15 14 14 14 15 16 17 16 16 16 17 17 18 18 18 18 19 19 19 20 21 21 22 22 23 24 24 25 26 27 28 29
11 11 11 11 12 12 12 12 13 13 12 12 12 12 15 16 16 16 16 16 16 17 18 19 19 19 19 20 20 21 21 22 22 22 22 23 24 24 25 25 26 27 28 28 29 30 31 32 33
14 14 13 13 13 14 14 14 13 14 14 14 13 12 14 17 18 18 18 19 19 19 19 20 20 21 22 22 23 24 25 26 26 26 26 27 28 28 29 29 30 31 31 32 32 33 34 35 36
16 16 16 16 16 16 16 16 15 14 14 15 15 14 14 16 18 19 20 21 21 21 21 22 22 23 24 25 26 27 28 29 30 30 30 31 31 32 33 34 34 35 36 36 36 37 38 39 40
19 19 19 18 17 17 18 18 16 14 13 15 16 16 15 16 18 19 21 22 23 23 24 24 25 25 26 28 29 30 31 32 33 34 35 35 35 36 37 38 39 40 40 40 41 41 42 43 44
21 20 20 19 19 19 19 20 19 15 14 14 15 16 16 17 18 20 21 22 23 24 25 27 27 28 29 30 31 32 33 34 35 37 38 39 40 41 42 42 43 44 44 44 45 46 46 47 48
21 21 20 20 19 19 19 20 22 17 15 15 15 15 16 16 18 19 21 22 23 24 25 27 29 30 31 32 33 34 35 36 38 39 41 43 44 45 46 46 47 48 48 48 49 50 51 51 52
20 19 19 19 17 18 19 19 19 18 17 17 17 17 17 17 17 19 20 21 22 23 25 27 28 30 32 33 34 35 36 37 39 41 43 45 46 48 49 50 51 52 53 53 54 54 55 55 56
18 17 17 18 16 16 17 17 17 17 17 18 18 18 18 18 18 19 19 21 22 24 25 26 28 30 32 34 35 36 37 38 39 40 42 44 46 49 51 52 53 55 56 57 57 58 58 59 61
16 16 16 16 15 14 15 17 16 16 17 18 18 19 19 19 19 20 21 22 23 25 26 27 29 30 32 34 35 36 37 38 39 41 42 44 47 49 51 53 55 57 59 59 60 61 62 62 64
14 14 13 13 14 15 15 17 17 16 17 17 18 19 20 20 21 22 23 25 26 27 28 29 30 32 33 34 36 37 38 39 41 43 45 46 48 50 52 54 56 58 60 62 63 64 65 65 66
12 13 12 11 12 14 16 19 19 17 17 17 18 20 20 21 23 24 26 28 29 30 31 31 32 33 34 35 37 38 39 41 43 45 46 48 50 52 54 56 58 60 62 63 65 66 67 68 68
12 13 12 11 12 14 16 19 21 20 19 19 20 21 22 23 25 27 28 29 30 31 32 32 33 34 35 36 38 39 41 42 44 46 48 51 53 55 57 59 60 62 63 64 66 68 69 70 70
13 14 14 13 14 15 16 19 22 23 23 23 23 24 24 24 25 27 28 29 30 31 32 33 34 34 36 37 38 40 42 43 45 47 49 51 53 56 58 60 62 64 65 66 68 69 71 71 71
14 15 16 16 16 17 19 20 23 25 26 26 26 26 25 25 25 26 28 29 29 30 31 31 32 33 34 35 36 38 40 41 43 45 47 49 51 54 56 59 60 62 64 66 68 69 70 71 72
16 17 19 20 20 20 22 23 25 25 26 27 26 25 25 25 25 25 26 27 28 28 29 29 30 31 33 34 36 37 39 40 42 44 46 48 50 52 55 57 59 61 62 64 66 67 69 71 72
18 19 21 24 25 25 24 24 26 27 27 25 24 24 23 23 23 24 26 27 27 28 29 30 31 33 35 37 38 40 42 44 45 47 49 51 53 54 56 58 59 61 63 64 65 66 67 69 70
21 22 24 26 28 28 26 25 27 26 25 24 23 22 22 22 23 25 26 27 28 29 31 32 34 36 38 40 42 44 46 48 50 52 54 56 57 58 59 60 61 62 63 64 66 67 67 68 69
24 25 26 28 29 31 29 25 25 25 24 23 22 22 22 23 25 26 27 29 31 33 35 36 38 40 42 44 47 49 51 53 55 57 59 60 62 63 64 64 65 65 66 66 67 67 67 68 68
26 27 28 30 31 30 29 24 24 24 24 23 23 23 24 26 27 29 30 32 35 37 39 41 43 45 47 50 52 54 57 59 60 62 63 65 66 66 67 68 68 68 68 69 69 69 69 69 68
Wind_Direction
74 79 84 91 107 146 162 174 176 169 163 163 165 177 199 209 222 236 238 234 235 243 248 252 258 264 272 279 284 287 287 287 287 286 286 286 286 286 284 283 282 281 280 278 277 275 274 272 270
70 71 75 77 76 91 118 137 138 134 131 130 132 146 177 189 216 234 240 246 246 250 254 258 264 269 276 281 286 288 288 288 288 288 289 290 290 291 290 289 287 286 285 284 282 280 278 276 274
62 61 61 67 74 86 119 125 123 121 120 120 123 137 203 204 223 247 258 262 260 260 264 268 271 274 279 284 287 287 287 287 288 289 290 291 292 292 292 292 291 290 289 288 287 285 283 281 278
52 44 40 43 58 79 111 117 117 119 120 121 129 210 267 263 262 266 270 272 271 269 271 273 274 277 280 284 285 285 286 286 287 289 290 292 293 293 293 293 293 292 292 291 290 289 287 285 283
35 24 13 9 8 354 317 306 340 91 112 242 269 278 282 276 265 266 272 274 275 274 274 275 276 277 279 281 281 282 283 284 286 288 289 290 291 291 291 292 292 292 292 293 293 292 291 290 289
18 2 347 342 340 331 311 295 298 303 303 294 284 277 279 278 272 265 268 272 274 275 274 273 274 275 276 277 275 276 278 281 284 285 286 287 288 290 290 291 292 292 294 295 295 295 295 294 294
4 352 340 333 328 319 307 298 297 295 291 285 283 278 274 278 277 269 266 268 272 274 273 270 271 272 273 272 271 272 274 277 280 283 285 287 288 290 291 293 294 295 297 297 298 299 299 300 299
359 350 343 337 323 309 303 298 295 293 286 278 277 273 271 278 280 274 268 267 270 272 273 270 268 269 269 269 269 269 272 275 277 280 283 284 287 288 290 292 294 295 297 298 299 300 301 301 301
348 344 343 335 322 312 309 302 297 295 289 281 278 274 272 276 280 278 273 269 269 271 272 270 268 268 268 268 268 269 270 273 275 277 280 282 284 286 288 291 292 293 295 296 297 298 299 299 299
331 332 334 330 324 318 311 302 296 295 295 295 286 276 276 277 279 279 276 271 268 269 270 269 268 267 267 267 268 268 269 271 272 274 277 280 282 284 286 288 289 291 292 293 294 295 295 296 296
315 321 323 322 320 317 312 306 302 294 293 298 290 282 281 281 280 280 278 274 270 268 269 269 269 267 267 267 268 269 269 269 270 272 275 278 280 281 283 285 287 288 289 290 291 292 293 293 294
299 306 312 313 312 310 308 307 306 303 302 300 294 287 284 285 284 282 280 276 272 268 269 271 270 269 268 267 267 268 268 268 269 271 273 275 277 279 281 283 284 285 286 288 289 290 290 291 291
288 294 298 302 305 306 304 303 302 303 305 301 298 292 284 282 283 282 280 277 275 272 271 271 271 270 269 268 267 267 267 268 268 269 270 272 274 277 279 281 282 283 285 286 287 288 289 289 290
281 286 292 297 301 301 300 301 302 303 303 299 296 291 285 281 280 279 278 277 276 274 271 270 269 269 269 268 268 268 268 268 268 268 269 270 272 274 276 279 280 281 283 284 285 286 287 288 289
277 282 286 292 294 294 295 295 299 302 300 296 295 295 292 288 285 282 280 277 276 275 273 271 269 268 267 267 267 268 268 269 268 268 269 270 270 272 274 276 277 279 280 282 283 284 285 286 287
277 280 283 286 288 289 290 289 293 295 293 291 293 294 294 293 291 288 285 282 279 277 275 274 272 270 267 266 266 266 267 268 268 268 268 269 269 270 272 273 275 276 279 280 281 283 284 285 286
275 278 280 283 284 283 281 279 289 295 293 292 291 291 292 293 291 290 288 286 283 281 279 277 276 274 272 270 268 268 267 267 267 267 268 268 269 271 272 273 274 276 277 278 280 281 283 284 285
274 277 278 278 277 274 274 277 286 292 293 293 293 293 292 291 290 287 286 286 285 284 281 279 278 276 275 274 272 270 269 269 269 270 270 271 272 272 273 273 274 275 277 278 279 281 283 284 284
274 275 275 276 276 274 276 278 283 287 290 292 294 295 294 293 291 288 287 287 286 285 283 282 280 278 277 277 275 274 273 272 272 272 272 272 272 272 272 273 274 276 277 279 280 282 282 283 283
270 271 273 277 280 281 282 284 287 289 293 296 297 297 297 296 295 293 292 290 288 287 285 283 281 280 278 277 277 276 276 275 274 273 272 271 272 273 275 276 277 278 279 280 281 282 282 283 284
268 270 274 280 287 289 288 288 291 293 296 297 296 296 296 295 294 293 293 292 290 288 286 285 283 281 280 278 278 277 277 277 276 276 275 275 275 276 276 277 278 278 279 280 281 281 282 282 283
270 275 279 281 284 287 291 292 294 296 296 293 291 292 293 292 292 293 293 293 292 291 289 287 286 284 283 282 281 280 280 279 278 278 278 277 277 276 277 277 277 278 278 279 280 281 281 282 282
272 278 282 283 284 287 290 293 296 298 295 292 291 291 292 293 294 295 296 295 294 292 291 290 289 288 287 286 285 284 283 283 282 281 280 279 279 279 278 278 277 278 278 279 279 280 280 281 282
276 280 283 285 288 289 291 293 295 297 296 296 296 296 297 297 298 298 297 296 294 294 293 293 293 292 292 291 289 288 287 286 285 285 284 283 282 281 281 280 279 279 279 279 279 279 280 280 281
277 283 287 289 291 293 294 293 293 296 297 298 300 299 299 299 299 299 298 298 298 298 298 299 299 298 298 297 296 295 294 293 291 290 289 287 286 285 284 283 282 281 281 280 280 280 280 280 281
278 284 289 293 295 297 297 297 297 297 297 298 297 297 298 299 299 298 299 301 302 303 304 303 303 303 303 302 302 301 300 299 297 296 294 292 290 289 287 286 284 283 282 282 281 281 280 280 280
279 284 290 293 295 297 298 298 295 295 296 295 295 297 298 299 299 300 303 304 305 305 305 305 305 305 305 305 305 304 302 301 300 298 297 296 294 293 291 290 288 286 285 283 282 282 281 281 280
282 287 291 294 296 298 299 298 296 296 295 295 296 297 298 298 299 301 303 303 303 304 305 305 304 305 305 305 305 304 303 302 301 299 298 297 295 294 292 291 290 288 287 285 284 284 283 282 281
285 289 292 293 294 296 298 300 297 296 296 296 297 296 296 296 298 299 300 301 302 304 305 305 305 305 306 305 305 304 303 302 301 300 298 297 295 294 293 291 290 289 287 286 285 285 284 282 281
284 288 290 291 293 294 295 299 293 293 292 293 295 294 294 295 296 298 299 300 302 304 305 305 306 306 306 305 304 304 303 302 301 300 298 297 295 294 293 291 290 288 287 286 285 284 283 282 282
Height
5873 5873 5873 5874 5874 5874 5874 5874 5874 5874 5875 5876 5877 5878 5879 5880 5880 5882 5880 5879 5879 5879 5879 5879 5878 5878 5878 5877 5877 5877 5877 5876 5876 5876 5876 5875 5875 5875 5874 5874 5874 5873 5873 5873 5872 5872 5872 5872 5872
5875 5875 5875 5875 5875 5875 5875 5874 5874 5874 5875 5875 5876 5877 5878 5878 5879 5879 5878 5878 5878 5878 5877 5877 5877 5876 5876 5876 5875 5875 5875 5874 5874 5874 5874 5873 5873 5872 5872 5871 5871 5871 5870 5870 5869 5869 5869 5869 5869
5877 5877 5877 5877 5876 5876 5876 5875 5874 5874 5874 5875 5876 5876 5877 5878 5878 5878 5877 5877 5877 5877 5876 5876 5875 5875 5874 5874 5873 5873 5873 5873 5872 5872 5872 5871 5871 5870 5870 5869 5869 5868 5868 5867 5867 5866 5866 5866 5865
5878 5878 5879 5878 5877 5877 5877 5876 5875 5874 5874 5875 5875 5876 5876 5877 5877 5877 5876 5875 5875 5875 5875 5874 5873 5873 5872 5872 5871 5871 5871 5871 5870 5870 5870 5869 5869 5868 5868 5867 5866 5865 5865 5864 5864 5863 5863 5862 5862
5879 5879 5879 5878 5877 5878 5877 5876 5875 5874 5874 5874 5874 5874 5874 5875 5875 5875 5874 5873 5873 5873 5872 5872 5871 5871 5870 5870 5870 5869 5869 5869 5869 5868 5868 5867 5867 5866 5865 5865 5864 5863 5862 5861 5861 5860 5859 5859 5858
5879 5879 5878 5877 5877 5877 5877 5876 5874 5874 5873 5873 5873 5873 5873 5872 5873 5873 5873 5871 5870 5870 5870 5869 5869 5869 5868 5868 5867 5867 5867 5867 5866 5866 5866 5865 5864 5864 5863 5862 5861 5860 5860 5859 5858 5857 5856 5855 5854
5879 5878 5877 5876 5876 5875 5875 5874 5873 5872 5872 5871 5871 5871 5870 5869 5870 5870 5870 5869 5868 5867 5867 5867 5866 5866 5866 5865 5865 5865 5865 5865 5864 5864 5863 5863 5862 5861 5860 5859 5858 5857 5856 5855 5854 5853 5852 5851 5850
5878 5878 5876 5876 5875 5874 5873 5871 5870 5870 5870 5869 5869 5869 5868 5867 5867 5867 5867 5867 5865 5864 5864 5864 5864 5863 5863 5863 5863 5862 5862 5862 5861 5861 5860 5860 5859 5858 5857 5856 5855 5854 5853 5852 5851 5849 5848 5847 5846
5877 5877 5875 5874 5873 5872 5871 5869 5868 5867 5867 5867 5867 5866 5865 5864 5864 5864 5864 5864 5863 5862 5861 5861 5860 5860 5860 5860 5860 5859 5859 5859 5858 5858 5857 5856 5856 5855 5854 5852 5851 5850 5849 5847 5846 5845 5844 5842 5841
5876 5875 5874 5873 5871 5870 5868 5867 5866 5865 5863 5864 5864 5863 5862 5861 5860 5860 5861 5861 5860 5859 5858 5857 5857 5857 5857 5856 5856 5856 5855 5855 5855 5854 5853 5852 5851 5850 5849 5848 5847 5846 5844 5843 5841 5840 5838 5837 5836
5874 5873 5872 5870 5869 5867 5866 5865 5864 5863 5861 5861 5861 5860 5858 5858 5857 5857 5857 5857 5857 5856 5854 5854 5853 5853 5853 5852 5852 5852 5851 5851 5850 5849 5849 5848 5847 5846 5844 5843 5842 5841 5839 5838 5836 5834 5833 5831 5830
5872 5871 5870 5868 5867 5865 5864 5862 5861 5860 5860 5858 5857 5856 5855 5854 5853 5853 5853 5853 5853 5852 5851 5850 5849 5849 5848 5848 5847 5847 5846 5846 5845 5844 5843 5842 5841 5840 5839 5838 5836 5835 5833 5832 5830 5828 5827 5825 5823
5869 5868 5867 5866 5864 5862 5861 5859 5858 5857 5856 5855 5854 5853 5852 5850 5849 5849 5848 5848 5847 5847 5846 5845 5845 5844 5843 5843 5842 5842 5841 5840 5839 5839 5838 5836 5835 5834 5833 5831 5830 5828 5826 5825 5823 5821 5819 5817 5816
5866 5865 5864 5863 5861 5859 5858 5856 5855 5854 5853 5851 5850 5849 5848 5846 5845 5844 5843 5842 5842 5841 5841 5840 5839 5838 5837 5837 5836 5835 5834 5834 5833 5832 5831 5830 5829 5827 5825 5824 5822 5820 5819 5817 5816 5814 5812 5809 5807
5862 5862 5860 5859 5857 5856 5854 5852 5852 5851 5849 5847 5846 5845 5844 5842 5841 5839 5838 5837 5836 5835 5834 5834 5833 5833 5832 5830 5829 5828 5827 5826 5826 5824 5823 5822 5821 5819 5818 5816 5814 5812 5810 5809 5807 5805 5803 5800 5798
5857 5857 5856 5855 5853 5851 5851 5848 5847 5847 5846 5844 5842 5841 5839 5838 5836 5834 5833 5831 5830 5829 5828 5827 5826 5826 5825 5824 5822 5821 5820 5819 5818 5816 5815 5814 5812 5810 5809 5807 5805 5802 5801 5799 5797 5795 5793 5790 5788
5852 5852 5851 5850 5849 5847 5846 5844 5842 5842 5842 5840 5839 5837 5836 5834 5832 5830 5828 5826 5824 5823 5821 5820 5818 5818 5817 5816 5815 5814 5813 5812 5809 5807 5806 5804 5802 5800 5798 5797 5795 5792 5790 5789 5786 5784 5781 5779 5776
5847 5846 5845 5845 5844 5843 5841 5840 5838 5838 5837 5835 5834 5833 5832 5830 5828 5826 5823 5821 5819 5817 5816 5814 5812 5810 5808 5807 5807 5806 5805 5803 5801 5800 5797 5795 5793 5790 5788 5787 5784 5781 5779 5777 5775 5772 5770 5767 5763
5841 5841 5840 5840 5839 5839 5837 5836 5835 5834 5832 5831 5829 5828 5826 5825 5823 5821 5818 5816 5814 5811 5810 5807 5805 5803 5801 5799 5797 5796 5795 5794 5793 5791 5789 5786 5783 5780 5778 5776 5773 5770 5768 5765 5763 5760 5757 5754 5749
5837 5837 5836 5835 5834 5834 5832 5831 5831 5829 5828 5826 5824 5823 5821 5819 5816 5814 5812 5810 5808 5806 5803 5801 5799 5796 5794 5791 5789 5787 5785 5784 5782 5780 5778 5775 5772 5770 5767 5765 5762 5758 5755 5753 5750 5746 5743 5740 5736
5832 5832 5832 5831 5830 5828 5828 5826 5826 5825 5824 5822 5819 5817 5815 5813 5810 5808 5806 5803 5801 5799 5796 5794 5791 5788 5786 5783 5781 5778 5776 5774 5772 5769 5766 5764 5762 5759 5756 5753 5749 5746 5742 5739 5736 5732 5728 5725 5722
5828 5828 5828 5827 5826 5825 5824 5822 5821 5820 5819 5817 5815 5812 5810 5807 5804 5801 5799 5796 5793 5790 5788 5785 5783 5780 5777 5775 5772 5769 5767 5764 5761 5759 5756 5753 5750 5747 5743 5740 5736 5732 5729 5725 5721 5717 5713 5708 5706
5824 5824 5824 5823 5822 5821 5820 5817 5816 5815 5813 5812 5809 5807 5804 5801 5798 5794 5791 5788 5785 5782 5779 5776 5773 5771 5768 5765 5763 5760 5757 5754 5751 5748 5745 5741 5737 5734 5730 5726 5722 5718 5714 5711 5706 5701 5697 5693 5689
5820 5820 5820 5819 5818 5818 5816 5813 5811 5808 5806 5804 5802 5800 5797 5794 5790 5787 5783 5779 5776 5773 5770 5767 5765 5762 5759 5756 5753 5750 5746 5743 5740 5736 5733 5729 5725 5721 5716 5712 5708 5704 5700 5695 5691 5685 5681 5677 5673
5817 5816 5815 5814 5813 5813 5810 5808 5806 5802 5799 5797 5794 5792 5789 5786 5783 5779 5775 5772 5769 5765 5762 5759 5756 5753 5749 5746 5743 5739 5735 5732 5728 5724 5720 5716 5712 5707 5702 5696 5692 5688 5683 5678 5673 5669 5664 5659 5655
5812 5812 5811 5809 5807 5807 5804 5801 5799 5796 5792 5790 5787 5784 5781 5778 5775 5772 5768 5765 5761 5758 5755 5751 5748 5744 5741 5737 5733 5729 5725 5720 5716 5712 5707 5702 5697 5692 5687 5681 5676 5671 5666 5661 5655 5651 5646 5641 5637
5807 5806 5805 5803 5800 5799 5798 5795 5792 5789 5786 5783 5780 5777 5774 5771 5768 5765 5761 5758 5754 5751 5747 5744 5740 5736 5732 5728 5723 5719 5714 5709 5704 5699 5694 5688 5683 5677 5671 5665 5660 5654 5648 5643 5637 5633 5628 5623 5618
5802 5800 5799 5796 5793 5791 5790 5788 5785 5781 5778 5776 5773 5770 5767 5764 5761 5758 5755 5751 5747 5744 5740 5736 5732 5728 5723 5718 5713 5708 5703 5697 5692 5686 5680 5674 5668 5661 5655 5649 5642 5636 5630 5624 5618 5614 5609 5603 5599
5796 5794 5791 5789 5787 5784 5781 5783 5777 5774 5771 5769 5766 5763 5761 5758 5755 5751 5747 5743 5739 5735 5731 5727 5722 5718 5713 5708 5702 5696 5690 5684 5678 5671 5665 5658 5651 5645 5638 5631 5625 5618 5612 5605 5599 5594 5589 5583 5579
5789 5787 5785 5783 5780 5776 5774 5777 5770 5767 5764 5762 5760 5757 5754 5751 5747 5744 5740 5735 5731 5727 5722 5717 5712 5707 5701 5695 5689 5683 5676 5670 5663 5655 5648 5641 5634 5626 5619 5612 5605 5599 5592 5585 5579 5574 5568 5563 5559